Theta_e
340 341 333 331 334 331 329 328 327 336 341 342 340 340 339 339 339 332 329 329 330 331 333 333 330 328 328 328 328 329 330 333 328 323 322 322 322 323 323 324 325 325 325
338 338 332 330 331 330 328 327 327 330 337 339 339 339 339 338 335 331 329 328 328 328 328 329 330 330 329 328 328 328 329 331 329 323 322 322 322 322 322 323 324 325 326
337 337 335 330 329 327 327 325 326 328 330 333 333 331 331 329 329 331 334 337 338 338 335 332 331 331 330 330 329 330 333 335 332 324 324 326 324 322 323 325 327 328 330
337 335 332 329 327 326 325 324 324 326 327 327 327 327 327 330 334 336 335 337 337 335 337 338 338 339 336 335 336 336 341 339 339 327 329 330 330 326 325 327 332 338 338
339 335 333 329 327 326 325 325 325 326 328 328 328 327 326 330 332 333 336 337 334 334 336 337 337 337 339 338 338 337 339 340 337 332 334 333 336 332 327 334 340 335 334
341 342 338 333 331 328 326 325 325 326 327 327 327 327 328 332 336 336 337 334 332 334 334 335 335 338 337 338 339 337 338 339 342 338 340 330 331 335 328 331 333 334 336
344 344 343 338 334 333 332 331 328 328 329 329 328 329 333 336 336 336 336 337 334 334 331 332 335 337 338 337 338 338 337 338 341 337 341 340 328 328 328 325 335 340 331
344 344 344 343 341 341 341 342 341 340 338 335 333 334 335 335 336 336 335 336 336 336 334 329 332 336 337 337 337 338 339 336 336 338 336 336 332 326 325 324 337 341 335
338 340 342 343 343 342 342 342 341 340 337 335 335 335 335 336 336 335 335 337 337 336 335 331 334 336 338 337 334 336 342 340 335 333 333 334 338 336 326 326 335 336 333
338 338 338 342 342 340 339 340 338 336 336 336 336 336 337 336 334 333 338 338 337 337 336 331 335 337 336 337 336 335 342 341 341 339 339 339 338 339 335 336 334 332 332
339 339 339 337 336 337 337 338 338 337 337 336 338 338 337 336 333 336 339 338 339 340 340 336 332 334 336 335 334 338 342 342 340 339 340 341 338 336 335 335 334 332 330
344 342 340 338 338 340 341 340 341 338 337 335 336 338 337 334 334 340 343 342 342 341 340 340 336 336 337 333 332 334 340 340 343 340 339 342 340 336 335 336 334 332 335
347 346 342 340 340 341 341 342 341 339 337 336 334 338 340 343 343 345 344 341 342 342 342 341 338 336 338 337 336 334 338 339 341 344 344 342 340 336 337 336 334 336 337
348 347 344 341 342 341 340 341 341 341 339 338 333 340 343 342 344 344 339 343 341 341 343 344 339 335 335 333 334 334 339 341 343 342 343 344 339 331 337 333 335 336 334
348 346 347 346 346 345 340 342 341 341 340 340 333 343 339 340 341 342 340 340 336 342 344 340 337 339 337 341 340 341 341 344 344 343 344 341 336 326 333 327 333 336 329
347 347 347 346 347 343 341 346 342 343 341 340 337 341 341 343 341 344 341 338 340 343 343 344 342 339 339 342 338 338 342 344 342 343 343 342 337 328 323 325 326 325 326
348 347 347 347 348 345 345 347 344 345 344 342 341 337 344 345 344 341 338 342 343 342 342 342 345 343 346 342 344 342 343 344 346 343 344 347 340 330 327 324 324 324 324
348 347 348 347 347 345 345 346 347 346 344 345 344 340 338 341 344 344 338 343 344 345 345 343 342 344 345 345 343 343 342 346 345 345 344 344 345 335 331 330 330 331 331
349 348 348 346 348 346 346 347 344 344 345 346 345 341 342 342 344 344 343 343 342 342 345 345 346 345 333 345 345 345 344 344 344 344 343 343 345 343 339 336 333 332 333
350 349 348 348 348 347 347 346 344 344 348 347 345 343 345 346 343 344 343 343 342 344 344 346 344 345 345 345 337 345 345 342 343 345 344 344 344 344 344 344 344 334 337
350 350 349 348 347 348 347 347 346 344 347 345 346 345 346 348 341 339 341 341 343 344 344 347 347 345 345 345 344 343 340 338 341 342 343 344 345 343 342 343 346 340 347
348 348 349 347 347 348 347 347 347 346 345 344 346 345 346 346 338 336 339 339 343 346 347 345 347 347 344 346 345 338 338 339 341 339 339 343 340 343 344 345 345 347 349
349 348 348 347 347 348 347 348 348 346 346 346 347 347 345 346 345 343 341 338 342 341 345 346 346 344 346 345 345 337 334 336 336 342 341 336 342 344 343 347 346 344 345
345 347 347 347 347 347 347 348 347 346 345 346 346 345 344 347 345 344 343 342 342 344 342 344 340 346 346 345 345 338 335 335 339 340 342 342 341 344 345 340 342 343 347
345 346 346 346 347 347 348 348 348 348 345 346 347 347 345 346 346 343 346 346 338 340 338 342 343 346 346 347 344 340 338 342 344 340 338 342 342 344 344 345 345 344 346
346 346 347 348 348 348 349 348 348 348 344 347 347 347 345 344 345 343 341 346 340 343 345 344 340 341 348 346 346 346 345 345 346 346 343 343 342 345 345 347 347 346 345
Wind_Speed
25 23 23 29 29 27 25 22 22 23 24 23 23 23 22 20 18 18 16 15 15 14 13 13 11 9 10 9 8 9 12 13 13 15 16 18 19 19 18 18 19 18 19
28 25 24 25 27 25 25 24 23 22 23 23 23 20 19 18 17 14 13 12 11 10 10 11 10 9 9 9 8 7 9 11 13 15 17 18 20 20 19 17 17 17 17
28 26 25 25 25 25 24 24 24 24 23 22 21 20 19 17 16 14 12 10 8 8 8 9 9 9 8 8 8 8 9 10 11 15 16 16 17 17 18 16 16 16 15
28 27 25 25 24 24 24 23 23 23 23 22 21 19 17 15 14 12 8 7 7 8 8 8 8 9 9 9 9 8 9 10 10 13 14 14 14 15 16 15 13 12 11
28 26 24 23 23 23 22 21 22 21 20 19 18 15 13 12 10 8 6 6 8 8 8 7 8 8 10 10 10 10 10 15 16 12 12 12 11 13 13 12 13 12 11
28 25 24 23 22 22 21 21 21 19 17 15 14 13 12 9 7 6 6 7 7 6 7 7 7 7 9 11 11 12 12 13 16 18 12 14 11 11 11 12 10 10 10
27 25 24 24 23 22 21 19 19 17 15 13 13 12 10 8 7 6 7 7 7 6 6 7 7 8 9 10 10 12 13 13 17 20 16 10 12 12 11 11 11 10 8
26 25 23 22 21 20 19 18 18 17 15 13 12 10 8 7 6 7 7 6 5 5 5 6 8 9 9 10 10 10 11 16 6 19 18 13 10 12 13 11 11 11 9
22 23 23 22 21 19 18 17 16 14 13 11 10 9 7 7 8 9 8 5 5 4 4 6 8 10 9 9 9 10 11 10 11 15 19 15 12 11 12 11 12 11 10
20 19 21 21 20 19 18 16 15 14 13 10 9 8 7 7 8 8 6 5 4 3 4 5 7 8 10 8 7 10 12 11 11 10 9 7 8 11 10 12 12 13 11
19 17 19 21 20 20 17 14 13 13 13 11 9 9 8 8 8 7 5 4 4 4 5 5 7 7 9 10 11 13 11 7 12 13 11 10 8 7 9 11 14 14 12
19 16 17 19 20 17 12 13 13 15 15 13 10 10 9 10 10 9 7 5 4 4 4 6 9 9 10 11 11 13 12 13 11 9 9 10 9 8 12 15 16 14 12
17 17 17 18 17 15 12 13 13 15 14 15 13 11 12 9 7 5 2 0 2 4 4 7 8 9 8 9 9 10 15 15 15 13 13 13 13 14 16 17 16 15 14
21 17 17 17 12 13 11 11 11 11 16 14 15 12 11 4 6 4 3 5 6 6 6 5 7 9 6 9 5 13 15 14 10 11 10 15 15 15 17 16 15 15 14
22 20 18 18 13 11 12 9 12 9 14 16 16 13 10 7 4 4 4 9 8 10 8 7 9 8 6 4 8 11 10 5 9 10 12 14 14 12 14 14 15 15 14
22 21 18 16 12 10 13 8 11 9 13 17 17 13 9 6 5 3 4 8 12 12 9 7 6 6 6 8 6 7 6 3 3 6 8 10 9 9 10 11 12 13 13
24 22 20 17 17 14 12 9 10 10 10 13 14 14 12 7 4 2 8 11 15 12 10 9 5 3 2 3 2 2 7 5 7 3 3 5 6 7 8 9 9 10 11
24 26 22 20 19 15 14 12 10 7 9 9 14 17 15 12 8 6 7 12 11 10 9 9 6 2 4 4 6 7 9 5 4 7 5 7 7 6 5 6 7 9 10
27 26 24 21 21 16 12 11 10 10 8 8 13 20 16 14 9 8 8 8 7 9 10 9 9 4 2 5 4 7 8 8 5 8 8 10 8 9 6 4 6 6 7
30 27 24 23 21 17 15 11 9 13 10 9 12 18 17 13 11 10 11 10 10 12 11 9 7 6 6 8 8 9 13 10 8 10 10 11 12 10 10 9 6 6 5
31 32 28 25 25 21 20 18 13 15 14 13 13 17 16 13 14 17 16 16 16 13 12 10 7 7 8 5 3 6 15 15 4 12 14 14 14 12 9 8 6 8 6
33 33 31 28 27 24 20 19 15 13 15 12 10 19 16 14 15 14 14 15 17 16 11 10 9 7 7 7 6 4 6 10 8 10 12 11 14 12 13 10 7 9 10
35 35 33 31 27 24 21 19 16 16 17 16 17 23 19 19 17 14 15 19 15 15 11 9 10 11 9 8 5 2 3 5 12 11 8 11 8 13 13 12 10 7 10
32 32 33 30 27 25 23 22 19 20 24 20 17 22 21 21 18 14 14 16 17 14 12 12 10 13 10 8 8 3 4 11 4 9 8 8 4 6 12 7 4 7 10
31 33 31 28 27 24 25 23 21 20 21 19 18 18 23 19 16 14 15 13 20 14 17 11 11 12 11 8 8 5 7 4 5 10 4 7 4 11 8 10 3 2 9
33 33 31 29 26 23 24 23 22 21 23 22 22 22 22 23 21 21 22 17 18 17 17 15 14 15 14 11 7 5 4 1 1 2 3 8 6 4 9 11 13 9 8
Wind_Direction
164 152 149 153 153 152 147 141 139 145 147 148 143 143 144 146 143 138 136 142 144 146 147 143 139 136 132 131 131 124 129 134 140 142 144 137 132 130 129 127 124 121 119
157 156 154 152 154 155 150 145 142 139 143 148 150 146 148 150 145 146 148 157 160 163 166 166 158 157 150 151 152 156 146 139 143 153 150 142 139 136 130 128 129 125 121
159 155 157 154 152 156 156 151 150 147 145 148 148 149 149 150 148 148 152 155 161 176 183 178 171 161 161 164 164 168 159 147 145 154 152 146 143 138 132 132 132 128 126
157 157 156 155 153 154 155 154 156 155 151 151 154 151 151 151 152 152 154 155 160 163 173 178 174 166 164 167 169 169 153 148 151 155 151 149 144 140 135 137 132 128 127
157 154 154 154 156 156 156 157 159 157 155 155 154 158 154 156 157 156 151 149 144 152 153 165 170 171 172 172 168 165 160 162 163 156 161 158 149 151 144 144 152 151 149
158 158 155 157 158 158 157 157 159 160 163 163 163 161 161 160 157 157 148 139 143 145 148 159 161 162 174 161 165 160 176 175 176 181 170 160 167 163 165 162 160 158 157
163 164 162 164 159 156 158 159 163 168 170 173 166 165 167 163 160 158 146 146 145 142 151 162 160 155 160 151 160 175 192 184 178 185 179 154 162 174 185 176 171 179 175
163 164 165 166 166 166 167 168 169 169 166 167 167 172 175 165 160 152 148 151 148 144 157 161 163 154 153 150 151 184 164 128 155 197 200 203 179 181 189 194 196 201 201
167 166 168 168 169 167 168 170 171 170 168 169 176 179 177 173 159 158 158 154 146 149 148 155 153 154 156 160 157 192 172 158 112 151 185 192 203 199 187 206 213 210 215
170 173 172 173 171 168 170 171 171 177 177 179 183 181 176 170 160 159 154 144 141 154 127 152 157 152 156 170 177 183 189 169 147 146 165 172 190 208 191 210 215 219 218
168 173 183 179 169 169 173 178 191 192 179 166 172 168 158 163 155 145 146 144 152 171 154 150 150 164 173 166 176 175 192 203 169 157 172 182 174 193 210 217 221 220 217
171 172 183 182 178 180 188 205 209 202 197 192 169 161 161 162 165 156 162 190 188 185 177 165 165 176 168 159 173 188 185 190 198 194 210 211 218 227 222 222 223 217 216
184 180 184 185 196 191 192 197 195 204 199 198 181 161 168 180 187 190 156 246 195 187 177 177 175 174 180 167 181 181 186 194 215 232 246 230 229 235 226 222 223 221 216
191 193 190 188 198 193 194 197 203 199 201 197 185 176 172 175 191 207 290 212 224 195 187 174 184 172 172 115 160 187 187 187 201 216 218 225 228 234 226 224 228 227 227
203 194 192 191 196 208 194 188 199 204 186 190 185 185 185 168 165 179 291 200 210 212 192 159 152 171 163 154 147 164 179 195 211 229 224 224 237 235 231 233 234 238 234
215 207 201 196 187 178 185 181 185 173 175 185 188 191 190 166 199 248 290 187 176 169 170 154 147 160 146 149 151 187 200 171 181 197 214 240 249 243 241 241 243 237 230
214 204 202 202 195 189 181 181 184 180 181 181 183 195 198 195 186 115 182 162 168 177 169 156 171 141 167 158 141 166 215 213 177 189 201 255 287 249 244 246 244 242 234
206 207 203 197 198 196 196 193 186 181 162 172 182 186 189 191 201 202 138 163 165 163 160 135 134 181 231 260 273 238 219 254 224 198 208 228 240 270 268 249 244 248 246
204 205 204 203 204 199 194 200 201 203 179 171 182 176 182 190 207 218 203 184 181 179 183 185 208 221 178 255 247 232 223 226 253 219 213 221 223 225 225 243 244 236 247
203 204 208 207 207 203 194 191 205 195 203 202 190 189 183 183 208 206 202 204 191 181 188 181 196 194 201 235 193 189 214 225 214 229 227 233 229 222 221 217 243 229 231
207 204 207 209 208 202 198 193 218 215 200 205 205 204 190 199 210 217 222 216 211 200 194 209 214 201 230 262 231 220 217 216 242 217 221 252 225 229 226 213 222 219 234
204 206 210 212 209 204 207 210 221 231 215 212 209 197 196 194 207 199 203 193 195 195 204 192 233 244 240 243 262 238 220 231 195 212 233 243 242 216 222 217 212 236 240
206 205 210 213 208 211 212 212 216 214 211 212 213 202 204 204 208 201 192 192 207 203 219 209 231 227 213 237 236 269 176 230 227 215 232 205 207 222 219 215 221 235 234
211 212 208 210 212 219 214 216 222 220 212 209 208 207 208 201 202 207 206 210 201 196 223 215 221 202 210 214 225 275 89 166 158 203 223 181 207 200 205 141 165 210 225
211 210 212 213 215 223 220 223 227 231 227 221 214 220 216 209 214 214 216 209 207 213 204 194 190 206 212 212 206 181 186 167 125 124 174 179 235 221 214 207 140 187 211
208 212 215 216 220 221 224 228 229 234 225 223 219 223 218 217 223 222 224 215 210 223 218 224 208 217 218 213 210 214 185 140 33 185 118 203 295 228 238 242 236 223 215